Weather History for KDMA - December, 2013

Change the Weather History Date:

Friday, December 20, 2013

  Actual Average Record
Temperature  
Mean Temperature 48 °F -  
Max Temperature 53 °F 63 °F 78 °F (1982)
Min Temperature 42 °F 39 °F 27 °F (1949)
Degree Days  
Heating Degree Days 18    
Moisture  
Dew Point 40 °F    
Average Humidity 78    
Maximum Humidity 100    
Minimum Humidity 51    
Precipitation  
Precipitation 0.39 in - - ()
Sea Level Pressure  
Sea Level Pressure 29.72 in    
Wind  
Wind Speed 7 mph (WSW)    
Max Wind Speed 20 mph    
Max Gust Speed 25 mph    
Visibility 9 miles    
Events Rain    
Averages and records for this station are not official NWS values.
T = Trace of Precipitation, MM = Missing Value Source: NWS Daily Summary

Daily Weather History Graph

Daily Weather History Graph

Search for Another Location

Airport or City:

Trip Planner

Search our weather history database for the weather conditions in past years. The results will help you decide how hot, cold, wet, or windy it might be!

Date:

Astronomy

Dec. 20, 2013 Rise Set
Actual Time 7:20 AM MST 5:22 PM MST
Civil Twilight 6:52 AM MST 5:49 PM MST
Nautical Twilight 6:22 AM MST 6:20 PM MST
Astronomical Twilight 5:52 AM MST 6:50 PM MST
Moon 8:36 PM MST (12/20) 9:24 AM MST (12/20)
Length of Visible Light 10h 56m
Length of Day
10h 02m
Waning Gibbous, 90% of the Moon is Illuminated
Dec 20
Waning Gibbous
Dec 25
Last Quarter
Jan 1
New
Jan 7
First Quarter
Jan 15
Full

Hourly Weather History & Observations

Time (MST) Temp. Windchill Dew Point Humidity Pressure Visibility Wind Dir Wind Speed Gust Speed Precip Events Conditions
12:58 AM 50.7 °F - 42.1 °F 72% 29.66 in 10.0 mi NNW 2.3 mph - N/A   Partly Cloudy
1:58 AM 50.7 °F - 41.9 °F 72% 29.63 in 10.0 mi Calm Calm - N/A   Clear
2:58 AM 51.3 °F - 37.4 °F 59% 29.60 in 10.0 mi NE 8.1 mph - N/A   Clear
3:58 AM 49.6 °F - 37.0 °F 62% 29.59 in 10.0 mi ESE 2.3 mph - N/A   Overcast
4:36 AM 51.8 °F - 35.6 °F 54% 29.65 in 10.0 mi Calm Calm - N/A   Light Drizzle
4:56 AM 51.8 °F - 37.4 °F 58% 29.68 in 9.0 mi SW 10.4 mph - N/A Rain Rain
4:58 AM 51.3 °F - 37.6 °F 60% 29.61 in 9.0 mi SW 13.8 mph - 0.00 in Rain Rain
5:03 AM 50.0 °F - 41.0 °F 71% 29.68 in 5.0 mi South 13.8 mph - N/A Rain Rain
5:13 AM 48.2 °F - 42.8 °F 82% 29.68 in 10.0 mi SSW 8.1 mph - N/A Rain Rain
5:18 AM 48.2 °F - 42.8 °F 82% 29.69 in 9.0 mi SW 10.4 mph - N/A Rain Light Rain
5:25 AM 48.2 °F - 44.6 °F 87% 29.70 in 7.0 mi West 19.6 mph 25.3 mph N/A Rain Rain
5:30 AM 46.4 °F 39.5 °F 42.8 °F 87% 29.71 in 5.0 mi West 17.3 mph 25.3 mph N/A Rain Heavy Rain
5:40 AM 44.6 °F 39.2 °F 41.0 °F 87% 29.71 in 5.0 mi West 10.4 mph 25.3 mph N/A Rain Rain
5:45 AM 44.6 °F 39.7 °F 42.8 °F 93% 29.72 in 6.0 mi West 9.2 mph - N/A Rain Rain
5:50 AM 44.6 °F 39.7 °F 42.8 °F 93% 29.72 in 8.0 mi West 9.2 mph - N/A Rain Rain
5:55 AM 42.8 °F 38.6 °F 41.0 °F 93% 29.71 in 5.0 mi WNW 6.9 mph - N/A Rain Rain
5:58 AM 43.5 °F 40.1 °F 41.9 °F 94% 29.66 in 5.0 mi NW 5.8 mph - 0.19 in Rain Rain
6:03 AM 42.8 °F 37.5 °F 42.8 °F 100% 29.71 in 6.0 mi NNW 9.2 mph - N/A Rain Light Rain
6:08 AM 42.8 °F 37.0 °F 42.8 °F 100% 29.71 in 8.0 mi NNW 10.4 mph - N/A Rain Rain
6:18 AM 44.6 °F 40.2 °F 42.8 °F 93% 29.71 in 9.0 mi North 8.1 mph - N/A Rain Light Rain
6:43 AM 44.6 °F - 42.8 °F 93% 29.73 in 9.0 mi Calm Calm - N/A Rain Rain
6:48 AM 44.6 °F 43.1 °F 42.8 °F 93% 29.73 in 6.0 mi NE 3.5 mph - N/A Rain Rain
6:58 AM 44.6 °F 43.1 °F 42.8 °F 93% 29.69 in 6.0 mi NE 3.5 mph - 0.06 in Rain Rain
7:03 AM 44.6 °F 43.1 °F 42.8 °F 93% 29.74 in 7.0 mi NE 3.5 mph - N/A Rain Light Rain
7:18 AM 44.6 °F 41.4 °F 42.8 °F 93% 29.74 in 9.0 mi ENE 5.8 mph - N/A Rain Rain
7:58 AM 44.1 °F 39.0 °F 43.7 °F 99% 29.70 in 10.0 mi East 9.2 mph - 0.04 in Rain Light Rain
8:58 AM 44.1 °F 39.0 °F 43.0 °F 96% 29.70 in 10.0 mi SE 9.2 mph - 0.09 in Rain Light Rain
9:43 AM 44.6 °F 39.2 °F 42.8 °F 93% 29.76 in 10.0 mi SSE 10.4 mph - N/A   Mostly Cloudy
9:58 AM 44.6 °F 38.8 °F 42.1 °F 91% 29.73 in 10.0 mi South 11.5 mph - 0.01 in   Partly Cloudy
10:58 AM 45.7 °F 40.2 °F 39.6 °F 79% 29.73 in 10.0 mi South 11.5 mph - N/A   Scattered Clouds
11:58 AM 48.6 °F - 40.3 °F 73% 29.68 in 10.0 mi ESE 11.5 mph - N/A   Clear
12:53 PM 50.0 °F - 39.2 °F 66% 29.70 in 10.0 mi SSE 6.9 mph - N/A   Mostly Cloudy
12:58 PM 50.9 °F - 39.6 °F 65% 29.65 in 10.0 mi SSW 10.4 mph - N/A   Mostly Cloudy
1:28 PM 50.0 °F - 39.2 °F 66% 29.70 in 10.0 mi SSW 10.4 mph - N/A   Mostly Cloudy
1:58 PM 51.8 °F - 37.6 °F 58% 29.65 in 10.0 mi South 9.2 mph - N/A   Mostly Cloudy
2:51 PM 53.6 °F - 35.6 °F 51% 29.69 in 10.0 mi SW 13.8 mph - N/A   Mostly Cloudy
2:58 PM 53.1 °F - 35.4 °F 51% 29.64 in 10.0 mi SW 9.2 mph - N/A   Scattered Clouds
3:58 PM 49.8 °F - 36.7 °F 61% 29.67 in 10.0 mi WNW 10.4 mph - N/A   Partly Cloudy
4:58 PM 49.8 °F - 35.6 °F 58% 29.68 in 10.0 mi WNW 12.7 mph 19.6 mph N/A   Partly Cloudy
5:58 PM 46.2 °F 41.7 °F 37.8 °F 72% 29.73 in 10.0 mi WNW 9.2 mph - N/A   Partly Cloudy
6:58 PM 45.7 °F 41.5 °F 37.9 °F 74% 29.74 in 10.0 mi West 8.1 mph - N/A   Overcast
7:58 PM 45.3 °F 42.3 °F 37.6 °F 74% 29.78 in 10.0 mi Variable 5.8 mph - N/A   Overcast
8:44 PM 44.6 °F 42.2 °F 37.4 °F 76% 29.81 in 10.0 mi West 4.6 mph - N/A Rain Light Rain
8:58 PM 45.1 °F 42.8 °F 37.9 °F 76% 29.79 in 10.0 mi West 4.6 mph - 0.00 in Rain Light Rain
9:06 PM 44.6 °F 43.1 °F 39.2 °F 81% 29.82 in 10.0 mi West 3.5 mph - N/A   Overcast
9:12 PM 44.6 °F 42.2 °F 37.4 °F 76% 29.82 in 10.0 mi West 4.6 mph - N/A   Light Drizzle
9:22 PM 44.6 °F - 37.4 °F 76% 29.82 in 10.0 mi WSW 2.3 mph - N/A   Overcast
9:24 PM 44.6 °F 43.1 °F 39.2 °F 81% 29.82 in 10.0 mi WSW 3.5 mph - N/A   Light Drizzle
9:29 PM 44.6 °F - 39.2 °F 81% 29.82 in 10.0 mi WSW 2.3 mph - N/A   Light Drizzle
9:39 PM 44.6 °F - 39.2 °F 81% 29.82 in 10.0 mi WSW 2.3 mph - N/A   Light Drizzle
9:55 PM 44.6 °F - 37.4 °F 76% 29.83 in 10.0 mi WSW 2.3 mph - N/A   Overcast
9:58 PM 45.0 °F 43.5 °F 38.1 °F 77% 29.81 in 10.0 mi SW 3.5 mph - 0.00 in   Overcast
10:48 PM 44.6 °F 41.4 °F 39.2 °F 81% 29.83 in 10.0 mi SSW 5.8 mph - N/A   Overcast
10:58 PM 45.1 °F 42.0 °F 38.3 °F 77% 29.81 in 10.0 mi SSW 5.8 mph - 0.00 in   Light Drizzle
10:59 PM 44.6 °F 41.4 °F 39.2 °F 81% 29.83 in 10.0 mi SSW 5.8 mph - N/A   Overcast
11:58 PM 45.1 °F 41.4 °F 37.9 °F 76% 29.81 in 10.0 mi SSW 6.9 mph - 0.00 in   Overcast